Location: Burbank
(38.7788°N, 114.0429°W)
Time: 19:49:53
(UTC+00:00)

Vanguard 2 Rocket - Pass Details

Date: 16 May 2026
Orbit: 553 x 3286 km, 32.9° (Epoch: 6 June)

Event Time Altitude Azimuth Distance (km) Brightness Sun altitude
Rises 22:59:29 0° 280° (W) 6,587 12.1 41.5°
Reaches altitude 10° 23:03:38 10° 276° (W) 5,812 12.1 40.7°
Maximum altitude 23:21:50 54° 206° (SSW) 3,747 10.9 37.2°
Drops below altitude 10° 23:39:20 10° 136° (SE) 5,585 10.6 33.8°
Sets 23:43:15 0° 132° (SE) 6,323 10.8 33.0°
